EA3CIU-1 Weather Reports


time (UTC)temp
C
wind
direction
speed
KPH
gust
KPH
rain 1hr
cm
rain 24hr
cm
rain mn
cm
humidity
%
barometer
mb
20260504173706 17 132 0.0 6.4 0.00 0.00 0.00 76 1009.0
20260504173206 17 158 3.2 8.0 0.00 0.00 0.00 76 1009.0
20260504172707 17 119 4.8 9.7 0.00 0.00 0.00 76 1009.0
20260504172206 17 165 0.0 9.7 0.00 0.00 0.00 76 1009.0
20260504171705 17 165 6.4 9.7 0.00 0.00 0.00 75 1009.0
20260504171207 17 161 0.0 6.4 0.00 0.00 0.00 75 1009.0
20260504170705 17 137 4.8 8.0 0.00 0.00 0.00 74 1009.0
20260504170206 17 161 0.0 8.0 0.00 0.00 0.00 73 1009.0
20260504160207 17 136 0.0 6.4 0.00 0.00 0.00 74
20260504150706 17 141 6.4 6.4 0.00 0.00 0.00 74
20260504150206 17 137 4.8 6.4 0.00 0.00 0.00 72
20260504141206 17 169 0.0 11.3 0.00 0.00 0.00 71 1011.0
20260504140706 17 125 4.8 9.7 0.00 0.00 0.00 71 1011.0
20260504140205 17 112 6.4 9.7 0.00 0.00 0.00 69 1011.0
20260504130705 18 144 8.0 12.9 0.00 0.00 0.00 72 1010.0
20260504130206 18 137 6.4 9.7 0.00 0.00 0.00 73
20260504120206 18 118 11.3 14.5 0.00 0.00 0.00 84
20260504110406 21 124 4.8 8.0 0.00 0.00 0.00 55
20260504100405 21 95 4.8 9.7 0.00 0.00 0.00 52
20260504081905 19 332 0.0 4.8 0.00 0.00 0.00 64 1011.0
20260504081405 18 113 0.0 6.4 0.00 0.00 0.00 66
20260504080905 18 131 0.0 8.0 0.00 0.00 0.00 66 1011.0
20260504070404 17 335 0.0 0.0 0.00 0.00 0.00 72 1012.0
20260504050405 15 336 0.0 6.4 0.00 0.00 0.00 89 1012.0
20260504045905 15 336 0.0 6.4 0.00 0.00 0.00 89 1012.0
20260504045405 15 343 0.0 6.4 0.00 0.00 0.00 88 1012.0
20260504044405 15 357 0.0 0.0 0.00 0.00 0.00 89 1012.0
20260504043904 15 319 0.0 0.0 0.00 0.00 0.00 89 1012.0
20260504043405 15 319 0.0 0.0 0.00 0.00 0.00 89 1012.0
20260504042904 15 319 0.0 0.0 0.00 0.00 0.00 90 1012.0
20260504042406 15 319 0.0 0.0 0.00 0.00 0.00 89 1012.0
20260504041903 15 319 0.0 0.0 0.00 0.00 0.00 89 1012.0
20260504041405 15 319 0.0 0.0 0.00 0.00 0.00 89 1012.0
20260504040905 15 319 0.0 0.0 0.00 0.00 0.00 89 1012.0
20260504040405 15 319 0.0 0.0 0.00 0.00 0.00 88 1012.0
20260504035904 15 319 0.0 0.0 0.00 0.00 0.00 88 1012.0
20260504035405 15 319 0.0 0.0 0.00 0.00 0.00 88 1012.0
20260504034404 15 319 0.0 0.0 0.00 0.00 0.00 87 1012.0
20260504033903 15 319 0.0 0.0 0.00 0.00 0.00 87 1012.0
20260504033405 15 319 0.0 0.0 0.00 0.00 0.00 86 1012.0
20260504032905 15 319 0.0 0.0 0.00 0.00 0.00 85 1012.0
20260504032404 15 319 0.0 0.0 0.00 0.00 0.00 84 1012.0
20260504031904 15 319 0.0 0.0 0.00 0.00 0.00 84 1012.0
20260504030905 15 319 0.0 0.0 0.00 0.00 0.00 84 1012.0
20260504030405 15 319 0.0 0.0 0.00 0.00 0.00 84 1012.0
20260504025904 15 319 0.0 0.0 0.00 0.00 0.00 84 1012.0
20260504025405 15 319 0.0 4.8 0.00 0.00 0.00 84 1012.0
20260504024404 15 319 0.0 4.8 0.00 0.00 0.00 84 1012.0
20260504023903 15 319 0.0 4.8 0.00 0.00 0.00 85 1012.0
20260504023404 15 319 0.0 4.8 0.00 0.00 0.00 85 1012.0
20260504022904 15 319 0.0 4.8 0.00 0.00 0.00 85 1012.0
20260504022404 15 328 0.0 4.8 0.00 0.00 0.00 85 1012.0
20260504021904 15 315 0.0 4.8 0.00 0.00 0.00 86 1012.0
20260504021404 15 307 0.0 0.0 0.00 0.00 0.00 87 1012.0
20260504020904 15 307 0.0 0.0 0.00 0.00 0.00 87 1012.0
20260504020407 15 307 0.0 0.0 0.00 0.00 0.00 87 1012.0
20260504015904 15 307 0.0 0.0 0.00 0.00 0.00 88 1012.0
20260504015404 15 307 0.0 0.0 0.00 0.00 0.00 88 1012.0
20260504014904 15 307 0.0 0.0 0.00 0.00 0.00 88 1012.0
20260504014405 15 307 0.0 0.0 0.00 0.00 0.00 88 1012.0
20260504013904 15 307 0.0 0.0 0.00 0.00 0.00 89 1012.0
20260504012404 15 307 0.0 0.0 0.00 0.00 0.00 90 1012.0
20260504011904 15 307 0.0 0.0 0.00 0.00 0.00 90 1012.0
20260504011404 15 307 0.0 0.0 0.00 0.00 0.00 91 1012.0
20260504010904 15 307 0.0 0.0 0.00 0.00 0.00 91 1013.0
20260504010404 15 307 0.0 0.0 0.00 0.00 0.00 91 1013.0
20260504005904 15 307 0.0 0.0 0.00 0.00 0.00 91 1013.0
20260504005405 15 307 0.0 0.0 0.00 0.00 0.00 91 1013.0
20260504004905 14 307 0.0 3.2 0.00 0.00 0.00 91 1013.0
20260504003404 14 307 0.0 4.8 0.00 0.00 0.00 91 1013.0
20260504002903 14 307 0.0 4.8 0.00 0.00 0.00 92 1013.0
20260504002403 14 307 0.0 4.8 0.00 0.00 0.00 92 1013.0
20260504001404 14 302 0.0 0.0 0.00 0.00 0.00 92 1013.0
20260504000905 14 302 0.0 0.0 0.00 0.00 0.00 92 1013.0
20260504000406 14 302 0.0 0.0 0.00 0.00 0.00 92 1013.0
20260503235903 14 302 0.0 0.0 0.00 0.00 0.00 92 1013.0
20260503235405 14 302 0.0 0.0 0.00 0.00 0.00 92 1013.0
20260503234904 14 302 0.0 4.8 0.00 0.00 0.00 92 1013.0
20260503233904 14 302 0.0 6.4 0.00 0.00 0.00 92 1013.0
20260503232905 14 305 0.0 6.4 0.00 0.00 0.00 93 1013.0
20260503231903 14 277 0.0 0.0 0.00 0.00 0.00 94 1013.0
20260503231404 14 277 0.0 0.0 0.00 0.00 0.00 94 1013.0
20260503230904 14 277 0.0 0.0 0.00 0.00 0.00 94 1013.0
20260503230405 14 277 0.0 0.0 0.00 0.00 0.00 94 1013.0
20260503225905 14 277 0.0 0.0 0.00 0.00 0.00 94 1013.0
20260503225404 14 277 0.0 4.8 0.00 0.00 0.00 94 1013.0
20260503224405 14 277 0.0 4.8 0.00 0.00 0.00 94 1013.0
20260503223904 14 298 0.0 0.0 0.00 0.00 0.00 94 1013.0
20260503223404 14 191 0.0 0.0 0.00 0.00 0.00 94 1013.0
20260503222904 14 191 0.0 0.0 0.00 0.00 0.00 94 1013.0
20260503222404 14 191 0.0 0.0 0.00 0.00 0.00 94 1013.0
20260503221904 14 125 0.0 4.8 0.00 0.00 0.00 94 1013.0
20260503221404 14 155 0.0 4.8 0.00 0.00 0.00 94 1013.0
20260503220405 14 173 0.0 4.8 0.00 0.00 0.00 94 1013.0
20260503215904 14 294 3.2 4.8 0.00 0.00 0.00 94 1013.0
20260503215404 14 205 0.0 4.8 0.00 0.00 0.00 94 1013.0
20260503214904 14 295 0.0 6.4 0.00 0.00 0.00 94 1013.0
20260503214404 14 262 0.0 6.4 0.00 0.00 0.00 94 1013.0
20260503213903 14 185 0.0 6.4 0.00 0.00 0.00 94 1013.0
20260503213404 14 193 3.2 6.4 0.00 0.00 0.00 94 1013.0
20260503212404 14 177 0.0 4.8 0.00 0.00 0.00 93 1014.0
20260503211904 14 141 0.0 4.8 0.00 0.00 0.00 92 1014.0
20260503211405 14 151 0.0 0.0 0.00 0.00 0.00 92 1014.0
20260503210904 15 173 0.0 4.8 0.00 0.00 0.00 92 1014.0
20260503210405 15 168 0.0 4.8 0.00 0.00 0.00 91 1014.0
20260503205904 15 189 0.0 6.4 0.00 0.00 0.00 91 1014.0
20260503205405 15 139 4.8 6.4 0.00 0.00 0.00 90 1014.0
20260503204904 15 135 0.0 6.4 0.00 0.00 0.00 90 1014.0
20260503204405 15 165 0.0 4.8 0.00 0.00 0.00 89 1014.0
20260503203903 15 165 0.0 4.8 0.00 0.00 0.00 88 1014.0
20260503202903 15 144 0.0 4.8 0.00 0.00 0.00 88 1014.0
20260503201904 15 246 0.0 0.0 0.00 0.00 0.00 88 1014.0
20260503201403 15 281 0.0 0.0 0.00 0.00 0.00 88 1014.0
20260503200905 15 242 0.0 0.0 0.00 0.00 0.00 89 1014.0
20260503200405 15 287 0.0 0.0 0.00 0.00 0.00 89 1014.0
20260503195903 15 162 0.0 0.0 0.00 0.00 0.00 89 1014.0
20260503195406 15 131 0.0 0.0 0.00 0.00 0.00 89 1013.0
20260503194903 15 259 0.0 4.8 0.00 0.00 0.00 89 1013.0
20260503194404 15 167 0.0 4.8 0.00 0.00 0.00 89 1013.0
20260503193905 15 167 0.0 4.8 0.00 0.00 0.00 89 1013.0
20260503193405 15 180 0.0 4.8 0.00 0.00 0.00 89 1013.0
20260503192904 15 154 0.0 4.8 0.00 0.00 0.00 89 1013.0
20260503191903 15 172 0.0 4.8 0.00 0.00 0.00 88 1013.0
20260503191404 15 184 0.0 4.8 0.00 0.00 0.00 88 1013.0
20260503190904 15 158 0.0 6.4 0.00 0.00 0.00 88 1013.0
20260503190404 15 170 0.0 6.4 0.00 0.00 0.00 88 1013.0
20260503185904 15 184 0.0 6.4 0.00 0.00 0.00 87 1013.0
20260503185405 15 137 3.2 6.4 0.00 0.00 0.00 86 1013.0
20260503184905 15 147 0.0 6.4 0.00 0.00 0.00 86 1013.0
20260503184404 15 170 4.8 6.4 0.00 0.00 0.00 85 1013.0
20260503183904 15 172 0.0 6.4 0.00 0.00 0.00 84 1013.0
20260503183405 15 171 0.0 4.8 0.00 0.00 0.00 83 1013.0
20260503182903 15 171 0.0 6.4 0.00 0.00 0.00 83 1013.0
20260503182405 15 135 0.0 8.0 0.00 0.00 0.00 82 1013.0
20260503181904 15 175 0.0 8.0 0.00 0.00 0.00 81 1013.0
20260503181404 15 152 4.8 8.0 0.00 0.00 0.00 79 1013.0
20260503180904 15 198 4.8 6.4 0.00 0.00 0.00 78 1013.0
20260503180406 15 164 4.8 8.0 0.00 0.00 0.00 77 1013.0
20260503175904 15 125 0.0 8.0 0.00 0.00 0.00 76 1013.0
20260503175405 15 188 0.0 8.0 0.00 0.00 0.00 76 1013.0
20260503174904 15 142 3.2 8.0 0.00 0.00 0.00 75 1013.0
20260503173903 16 223 0.0 6.4 0.00 0.00 0.00 73 1013.0